{"data":{"norad_id":67094,"epoch":"2026-05-25T03:31:15.444192Z","epoch_age_seconds":72807,"freshness":"FRESH","line1":"1 67094U 25298V   26145.14670653  .00003887  00000+0  33322-3 0  9993","line2":"2 67094  70.0009 181.5322 0004139 266.2762  93.7924 14.98345933 24676","mean_motion":14.98345933,"eccentricity":0.0004139,"inclination_deg":70.0009,"raan_deg":181.5322,"arg_perigee_deg":266.2762,"mean_anomaly_deg":93.7924,"bstar":0.00033322,"rev_number":2467,"period_min":96.105977150205,"perigee_km":569.12995544858,"apogee_km":574.88328433712,"semimajor_km":6950.1436198929,"source":"CELESTRAK","updated_at":"2026-05-25T13:38:21.470520Z"}}